Find Starlink 32641

NORAD ID: 62236 Int'l Des: 2024-231 Owner: SPXS Country: US Constellation: starlink operational
LEOCIRCULAR

实时位置

正在加载3D地球...

关于 Starlink 32641

正在加载描述...

即将过境

Passes for default location (London). Set your location on the main map for personalized predictions.

高度历史

Loading altitude history...

两行轨道根数

1 62236U 24231U 26127.77103062 .00024468 00000-0 83539-3 0 9990
2 62236 53.1597 292.4456 0001060 82.0985 278.0136 15.30205120 80983
Epoch: May 7, 2026 • Age: 10 hours

当前状态

高度 475.2 km
速度 7.63 km/s
星下点 9.69°N, 167.54°E
发射日期 Dec 5, 2024
运行时间 1.4 years
类型 internet

技术详情

分类 Payload
质量 730.00 kg
干质量 700.00 kg
总质量 730.00 kg
长度 0.30 m
直径 4.10 m
跨度 29.00 m
形状 Box + pan
制造商 SPXS
平台类型 Starlink V2M
阶段状态 In Orbit
所有者/国家 SPXS/US

Most Searched